TimeEST,TemperatureF,Dew PointF,Humidity,Sea Level PressureIn,VisibilityMPH,Wind Direction,Wind SpeedMPH,Gust SpeedMPH,PrecipitationIn,Events,Conditions,WindDirDegrees,DateUTC
12:03 AM,44.6,41.0,87,29.98,0.2,Calm,Calm,-,N/A,Fog,Fog,0,2012-12-09 05:03:00
12:52 AM,43.0,39.9,89,30.00,0.2,Calm,Calm,-,N/A,Fog,Fog,0,2012-12-09 05:52:00
1:52 AM,42.1,39.9,92,30.03,0.2,NNE,3.5,-,N/A,Fog,Fog,30,2012-12-09 06:52:00
2:23 AM,42.8,39.2,87,30.04,0.2,NNE,3.5,-,N/A,Fog,Fog,30,2012-12-09 07:23:00
2:47 AM,42.8,39.2,87,30.06,0.5,Calm,Calm,-,N/A,Fog,Fog,0,2012-12-09 07:47:00
2:52 AM,42.1,39.9,92,30.07,0.5,Calm,Calm,-,N/A,Fog,Fog,0,2012-12-09 07:52:00
3:31 AM,41.0,37.4,87,30.07,0.2,Calm,Calm,-,N/A,Fog,Fog,0,2012-12-09 08:31:00
3:52 AM,39.9,37.9,93,30.08,0.2,Calm,Calm,-,N/A,Fog,Fog,0,2012-12-09 08:52:00
4:29 AM,37.4,35.6,93,30.09,0.5,Calm,Calm,-,N/A,Fog,Fog,0,2012-12-09 09:29:00
4:52 AM,37.0,34.0,89,30.10,0.5,Calm,Calm,-,N/A,Fog,Fog,0,2012-12-09 09:52:00
5:37 AM,35.6,33.8,93,30.13,1.0,Calm,Calm,-,N/A,,Mist,0,2012-12-09 10:37:00
5:44 AM,35.6,32.0,87,30.14,0.2,Calm,Calm,-,N/A,Fog,Fog,0,2012-12-09 10:44:00
5:52 AM,35.1,33.1,92,30.14,0.2,Calm,Calm,-,N/A,Fog,Fog,0,2012-12-09 10:52:00
6:13 AM,33.8,32.0,93,30.16,0.5,Calm,Calm,-,N/A,Fog,Fog,0,2012-12-09 11:13:00
6:35 AM,33.8,30.2,87,30.17,1.2,Calm,Calm,-,N/A,,Scattered Clouds,0,2012-12-09 11:35:00
6:43 AM,33.8,30.2,87,30.17,2.5,Calm,Calm,-,N/A,,Scattered Clouds,0,2012-12-09 11:43:00
6:49 AM,33.8,30.2,87,30.18,1.0,Calm,Calm,-,N/A,,Mist,0,2012-12-09 11:49:00
6:52 AM,33.1,30.0,89,30.18,0.8,Calm,Calm,-,N/A,,Mist,0,2012-12-09 11:52:00
6:57 AM,33.8,30.2,87,30.19,0.2,Calm,Calm,-,N/A,Fog,Fog,0,2012-12-09 11:57:00
7:08 AM,33.8,30.2,87,30.18,0.8,Calm,Calm,-,N/A,,Mist,0,2012-12-09 12:08:00
7:20 AM,32.0,28.4,87,30.19,1.2,Calm,Calm,-,N/A,,Scattered Clouds,0,2012-12-09 12:20:00
7:28 AM,33.8,30.2,87,30.20,2.0,NE,4.6,-,N/A,,Scattered Clouds,50,2012-12-09 12:28:00
7:52 AM,36.0,35.1,97,30.22,5.0,Calm,Calm,-,N/A,,Partly Cloudy,0,2012-12-09 12:52:00
8:52 AM,44.1,37.9,79,30.25,10.0,North,4.6,-,N/A,,Clear,350,2012-12-09 13:52:00
9:52 AM,46.0,36.0,68,30.26,10.0,NNW,9.2,-,N/A,,Clear,340,2012-12-09 14:52:00
10:52 AM,46.9,36.0,66,30.25,10.0,NNW,5.8,-,N/A,,Clear,330,2012-12-09 15:52:00
11:52 AM,46.9,33.1,59,30.24,10.0,NNE,8.1,-,N/A,,Clear,20,2012-12-09 16:52:00
1:52 PM,46.9,30.9,54,30.23,10.0,NNE,5.8,-,N/A,,Mostly Cloudy,30,2012-12-09 18:52:00
2:52 PM,46.9,30.9,54,30.24,10.0,NE,5.8,-,N/A,,Clear,50,2012-12-09 19:52:00
3:52 PM,46.0,27.0,47,30.25,10.0,East,3.5,-,N/A,,Overcast,90,2012-12-09 20:52:00
4:52 PM,44.1,28.9,55,30.25,10.0,North,3.5,-,0.00,Rain,Light Rain,10,2012-12-09 21:52:00
5:52 PM,44.1,30.0,58,30.26,10.0,Calm,Calm,-,0.01,Rain,Light Rain,0,2012-12-09 22:52:00
6:52 PM,41.0,34.0,76,30.27,10.0,Calm,Calm,-,0.02,Rain,Light Rain,0,2012-12-09 23:52:00
7:52 PM,39.9,35.1,83,30.25,10.0,NNE,3.5,-,0.01,Rain,Light Rain,30,2012-12-10 00:52:00
8:52 PM,39.9,34.0,79,30.22,10.0,ENE,5.8,-,0.00,Rain,Light Rain,70,2012-12-10 01:52:00
9:20 PM,39.2,35.6,87,30.20,5.0,East,3.5,-,0.01,Rain,Light Rain,80,2012-12-10 02:20:00
9:47 PM,39.2,35.6,87,30.18,6.0,NE,4.6,-,0.01,Rain,Light Rain,50,2012-12-10 02:47:00
9:52 PM,39.9,36.0,86,30.19,5.0,ENE,4.6,-,0.01,Rain,Light Rain,60,2012-12-10 02:52:00
10:52 PM,42.1,37.9,85,30.15,5.0,ENE,4.6,-,0.01,Rain,Light Rain,70,2012-12-10 03:52:00
11:52 PM,43.0,39.0,86,30.10,10.0,East,6.9,-,0.01,Rain,Light Rain,80,2012-12-10 04:52:00